TimeCET,TemperatureF,Dew PointF,Humidity,Sea Level PressureIn,VisibilityMPH,Wind Direction,Wind SpeedMPH,Gust SpeedMPH,PrecipitationIn,Events,Conditions,WindDirDegrees,DateUTC
12:00 AM,41.0,39.2,93,29.77,3.1,WNW,17.3,-,N/A,Rain,Rain Showers,290,2012-12-04 23:00:00
12:30 AM,42.8,39.2,87,29.74,6.2,West,11.5,-,N/A,Rain,Light Rain Showers,270,2012-12-04 23:30:00
1:00 AM,44,40,80,29.77,16,WNW,11.5,,,Rain,Light Rain Showers,290,2012-12-05 00:00:00
1:00 AM,42.8,39.2,87,29.74,6.2,WNW,11.5,-,N/A,,Scattered Clouds,290,2012-12-05 00:00:00
1:30 AM,44.6,41.0,87,29.74,6.2,WNW,12.7,-,N/A,Rain,Rain Showers,290,2012-12-05 00:30:00
2:00 AM,44.6,39.2,81,29.74,6.2,WNW,13.8,-,N/A,,Mostly Cloudy,300,2012-12-05 01:00:00
2:30 AM,44.6,39.2,81,29.74,6.2,NW,18.4,-,N/A,,Mostly Cloudy,310,2012-12-05 01:30:00
3:00 AM,46.4,37.4,71,29.74,6.2,NW,15.0,-,N/A,,Partly Cloudy,310,2012-12-05 02:00:00
3:24 AM,44.6,37.4,76,29.74,6.2,NW,12.7,-,N/A,,Partly Cloudy,310,2012-12-05 02:24:00
4:00 AM,44.6,39.2,81,29.74,6.2,WNW,12.7,-,N/A,,Scattered Clouds,300,2012-12-05 03:00:00
4:30 AM,42.8,37.4,81,29.74,6.2,NW,20.7,-,N/A,,Scattered Clouds,320,2012-12-05 03:30:00
5:00 AM,44.6,39.2,81,29.74,6.2,NW,12.7,29.9,N/A,,Scattered Clouds,310,2012-12-05 04:00:00
5:30 AM,44.6,39.2,81,29.74,6.2,NW,11.5,-,N/A,,Scattered Clouds,320,2012-12-05 04:30:00
6:00 AM,44.6,39.2,81,29.74,6.2,NW,11.5,-,N/A,,Scattered Clouds,310,2012-12-05 05:00:00
6:30 AM,44.6,39.2,81,29.74,6.2,NNW,12.7,-,N/A,,Mostly Cloudy,330,2012-12-05 05:30:00
7:00 AM,44,39,77,29.79,12,NW,10.4,,,Rain,Light Rain Showers,320,2012-12-05 06:00:00
7:00 AM,44.6,39.2,81,29.77,6.2,NW,10.4,-,N/A,,Scattered Clouds,320,2012-12-05 06:00:00
7:30 AM,44.6,39.2,81,29.77,6.2,NW,12.7,-,N/A,,Scattered Clouds,320,2012-12-05 06:30:00
8:00 AM,44.6,39.2,81,29.80,6.2,NNW,13.8,-,N/A,,Scattered Clouds,330,2012-12-05 07:00:00
8:30 AM,44.6,41.0,87,29.80,6.2,NNW,12.7,-,N/A,,Partly Cloudy,330,2012-12-05 07:30:00
9:00 AM,44.6,37.4,76,29.83,6.2,NW,11.5,-,N/A,,Partly Cloudy,320,2012-12-05 08:00:00
9:30 AM,44.6,39.2,81,29.83,6.2,NW,13.8,-,N/A,,Scattered Clouds,320,2012-12-05 08:30:00
10:00 AM,44.6,39.2,81,29.86,6.2,NNW,11.5,-,N/A,,Scattered Clouds,330,2012-12-05 09:00:00
10:30 AM,44.6,39.2,81,29.86,6.2,NNW,13.8,-,N/A,,Partly Cloudy,340,2012-12-05 09:30:00
11:00 AM,46.4,41.0,81,29.86,6.2,NNW,12.7,-,N/A,,Scattered Clouds,330,2012-12-05 10:00:00
11:30 AM,48.2,37.4,66,29.89,6.2,NNW,15.0,-,N/A,,Partly Cloudy,330,2012-12-05 10:30:00
12:00 PM,48.2,39.2,71,29.89,6.2,NNW,12.7,-,N/A,,Partly Cloudy,330,2012-12-05 11:00:00
12:30 PM,46.4,39.2,76,29.89,6.2,North,16.1,-,N/A,,Scattered Clouds,350,2012-12-05 11:30:00
1:00 PM,46,39,68,29.91,9,NW,15.0,,,,Partly Cloudy,320,2012-12-05 12:00:00
1:00 PM,46.4,39.2,76,29.89,6.2,NW,15.0,-,N/A,,Scattered Clouds,320,2012-12-05 12:00:00
1:30 PM,46.4,37.4,71,29.89,6.2,NNW,18.4,-,N/A,,Scattered Clouds,340,2012-12-05 12:30:00
2:00 PM,44.6,39.2,81,29.92,6.2,NW,18.4,-,N/A,,Scattered Clouds,320,2012-12-05 13:00:00
4:00 PM,44.6,35.6,71,29.95,6.2,North,12.7,-,N/A,,Scattered Clouds,360,2012-12-05 15:00:00
4:30 PM,44.6,35.6,71,29.95,6.2,North,10.4,-,N/A,,Partly Cloudy,360,2012-12-05 15:30:00
5:00 PM,42.8,33.8,70,29.98,6.2,North,9.2,-,N/A,,Partly Cloudy,360,2012-12-05 16:00:00
5:30 PM,42.8,33.8,70,29.98,6.2,North,8.1,-,N/A,,Partly Cloudy,360,2012-12-05 16:30:00
6:00 PM,41.0,33.8,76,29.98,6.2,North,5.8,-,N/A,,Partly Cloudy,10,2012-12-05 17:00:00
6:30 PM,41.0,33.8,76,30.01,6.2,North,3.5,-,N/A,,Partly Cloudy,350,2012-12-05 17:30:00
7:00 PM,40,32,65,30.04,12,North,4.6,,,,Partly Cloudy,350,2012-12-05 18:00:00
7:00 PM,39.2,32.0,75,30.01,6.2,North,4.6,-,N/A,,Partly Cloudy,350,2012-12-05 18:00:00
7:30 PM,37.4,32.0,81,30.04,6.2,North,3.5,-,N/A,,Partly Cloudy,350,2012-12-05 18:30:00
8:30 PM,37.4,32.0,81,30.06,6.2,NNW,4.6,-,N/A,,Partly Cloudy,330,2012-12-05 19:30:00
9:00 PM,37.4,30.2,75,30.06,-9999.0,NNW,4.6,-,N/A,,Clear,330,2012-12-05 20:00:00
9:30 PM,33.8,30.2,87,30.06,-9999.0,WNW,3.5,-,N/A,,Clear,300,2012-12-05 20:30:00
10:00 PM,33.8,30.2,87,30.06,-9999.0,WNW,2.3,-,N/A,,Clear,290,2012-12-05 21:00:00
10:30 PM,32.0,30.2,93,30.09,-9999.0,WNW,2.3,-,N/A,,Clear,300,2012-12-05 21:30:00
11:00 PM,30.2,28.4,93,30.09,-9999.0,WSW,3.5,-,N/A,,Clear,250,2012-12-05 22:00:00
11:30 PM,30.2,28.4,93,30.09,-9999.0,West,3.5,-,N/A,,Clear,260,2012-12-05 22:30:00